Find Starlink 31261

NORAD ID: 59084 Int'l Des: 2024-041 Owner: SPXS Country: US Constellation: starlink operational
LEOCIRCULAR

当前视图

正在加载3D地球...

About Starlink 31261

Starlink 31261 (NORAD 59084) is a starlink constellation satellite (v2 mini) launched Feb 29, 2024 by SPXS of US. It operates in LEO, CIRCULAR orbit with a mass of 730.00 kg.

即将过境

Passes for default location (London). Set your location on the main map for personalized predictions.

高度历史

Loading altitude history...

两行轨道根数

1 59084U 24041L 26263.10965166 .00000027 00000-0 10496-4 0 9993
2 59084 43.0005 292.8823 0000901 276.7404 83.3345 15.27575831144058
Epoch: Sep 20, 2026 • Age: 29 hours

当前状态

高度 485.5 km
远地点 / 近地点 N/A
速度 7.63 km/s
星下点 37.48°N, 126.43°W
发射日期 Feb 29, 2024
运行时间 2.5 years
类型 internet

技术详情

分类 Payload
质量 730.00 kg
干质量 700.00 kg
长度 0.30 m
跨度 29.00 m
形状 ? Box + pan
制造商 SPXS
平台类型 Starlink V2M
阶段状态 In Orbit
所有者/国家 SPXS/US

Most Searched